AUA7C LOWI-LOWW

Flight info

Callsign AUA7C
Flight time 0h 47m
Altitude 29000
Route RTT DCT NEMAL NEMAL2W
Aircraft A319/M-SDE3FGHIRWY/LB1

Departure

Time 2026-04-22 19:23
Airport Innsbruck Airport (LOWI)

Arrival

Time 2026-04-22 20:11
Airport Vienna International Airport (LOWW)
Time Latitude Longitude Altitude Speed Heading
2026-04-22 18:59 47.25816 11.34993 1907 ft 0 kts 171°
2026-04-22 19:08 47.25819 11.34992 1907 ft 2 kts 172°
2026-04-22 19:09 47.25836 11.34989 1894 ft 3 kts 181°
2026-04-22 19:09 47.25856 11.34992 1907 ft 3 kts 202°
2026-04-22 19:09 47.25871 11.35006 1898 ft 3 kts 245°
2026-04-22 19:09 47.25874 11.35020 1896 ft 1 kts 261°
2026-04-22 19:10 47.25875 11.35023 1896 ft 0 kts 261°
2026-04-22 19:12 47.25872 11.35003 1897 ft 6 kts 260°
2026-04-22 19:12 47.25862 11.34905 1901 ft 11 kts 261°
2026-04-22 19:12 47.25850 11.34793 1903 ft 11 kts 261°
2026-04-22 19:13 47.25836 11.34676 1907 ft 13 kts 261°
2026-04-22 19:13 47.25817 11.34501 1902 ft 22 kts 260°
2026-04-22 19:13 47.25798 11.34323 1907 ft 17 kts 261°
2026-04-22 19:13 47.25781 11.34158 1900 ft 14 kts 261°
2026-04-22 19:14 47.25771 11.34019 1907 ft 14 kts 272°
2026-04-22 19:14 47.25797 11.33904 1898 ft 6 kts 300°
2026-04-22 19:14 47.25813 11.33870 1896 ft 0 kts 305°
2026-04-22 19:22 47.25835 11.33826 1905 ft 14 kts 306°
2026-04-22 19:22 47.25908 11.33677 1909 ft 10 kts 306°
2026-04-22 19:22 47.25942 11.33673 1901 ft 6 kts 71°
2026-04-22 19:22 47.25944 11.33686 1901 ft 0 kts 79°
2026-04-22 19:23 47.25989 11.34094 1907 ft 86 kts 81°
2026-04-22 19:23 47.26127 11.35348 1959 ft 153 kts 79°
2026-04-22 19:23 47.26265 11.36849 2869 ft 139 kts 83°
2026-04-22 19:24 47.26380 11.38279 3583 ft 147 kts 79°
2026-04-22 19:24 47.26599 11.39864 4002 ft 168 kts 77°
2026-04-22 19:24 47.26854 11.41622 4462 ft 180 kts 78°
2026-04-22 19:24 47.27113 11.43450 5148 ft 184 kts 78°
2026-04-22 19:25 47.27415 11.45292 5880 ft 187 kts 74°
2026-04-22 19:25 47.27777 11.47145 6566 ft 189 kts 73°
2026-04-22 19:25 47.28144 11.49002 7262 ft 189 kts 73°
2026-04-22 19:25 47.28511 11.50869 7938 ft 192 kts 73°
2026-04-22 19:26 47.28880 11.52771 8665 ft 194 kts 72°
2026-04-22 19:26 47.29250 11.54688 9414 ft 196 kts 72°
2026-04-22 19:26 47.29622 11.56636 10146 ft 200 kts 72°
2026-04-22 19:26 47.29998 11.58620 10842 ft 203 kts 72°
2026-04-22 19:27 47.30376 11.60626 11575 ft 204 kts 72°
2026-04-22 19:27 47.30757 11.62641 12339 ft 204 kts 71°
2026-04-22 19:27 47.31181 11.64641 13088 ft 204 kts 62°
2026-04-22 19:27 47.31951 11.66487 13517 ft 223 kts 53°
2026-04-22 19:28 47.32894 11.68448 13894 ft 246 kts 52°
2026-04-22 19:28 47.33814 11.70723 14202 ft 274 kts 67°
2026-04-22 19:28 47.34360 11.73543 14476 ft 299 kts 72°
2026-04-22 19:28 47.34897 11.76632 14716 ft 323 kts 73°
2026-04-22 19:29 47.35442 11.79871 15199 ft 335 kts 73°
2026-04-22 19:29 47.35999 11.83238 15886 ft 340 kts 73°
2026-04-22 19:29 47.36562 11.86653 16609 ft 345 kts 73°
2026-04-22 19:29 47.37135 11.90108 17300 ft 349 kts 73°
2026-04-22 19:30 47.37529 11.92462 17770 ft 352 kts 73°
2026-04-22 19:30 47.38317 11.97149 18732 ft 358 kts 73°
2026-04-22 19:30 47.38917 12.00729 19407 ft 360 kts 73°
2026-04-22 19:30 47.39521 12.04331 20114 ft 363 kts 73°
2026-04-22 19:31 47.40129 12.07956 20752 ft 367 kts 73°
2026-04-22 19:31 47.40744 12.11636 21414 ft 370 kts 73°
2026-04-22 19:31 47.41358 12.15337 22064 ft 374 kts 73°
2026-04-22 19:31 47.41977 12.19088 22709 ft 378 kts 73°
2026-04-22 19:32 47.42604 12.22872 23317 ft 381 kts 73°
2026-04-22 19:32 47.43239 12.26693 23917 ft 385 kts 73°
2026-04-22 19:32 47.43879 12.30551 24412 ft 389 kts 73°
2026-04-22 19:32 47.44523 12.34446 24899 ft 392 kts 73°
2026-04-22 19:33 47.45172 12.38375 25385 ft 395 kts 73°
2026-04-22 19:33 47.45823 12.42336 25847 ft 398 kts 73°
2026-04-22 19:33 47.46475 12.46325 26291 ft 402 kts 73°
2026-04-22 19:33 47.47132 12.50357 26758 ft 405 kts 73°
2026-04-22 19:34 47.47792 12.54423 27208 ft 408 kts 73°
2026-04-22 19:34 47.48458 12.58527 27643 ft 412 kts 73°
2026-04-22 19:34 47.49125 12.62652 28103 ft 415 kts 74°
2026-04-22 19:34 47.49795 12.66814 28541 ft 418 kts 74°
2026-04-22 19:35 47.50467 12.71010 28960 ft 421 kts 74°
2026-04-22 19:35 47.51145 12.75239 29262 ft 424 kts 74°
2026-04-22 19:35 47.51593 12.78032 29293 ft 416 kts 75°
2026-04-22 19:35 47.52462 12.83480 29301 ft 401 kts 74°
2026-04-22 19:36 47.53100 12.87484 29300 ft 399 kts 74°
2026-04-22 19:36 47.54367 12.95454 29300 ft 397 kts 75°
2026-04-22 19:37 47.55628 13.03417 29303 ft 397 kts 75°
2026-04-22 19:37 47.56875 13.11355 29299 ft 394 kts 75°
2026-04-22 19:38 47.58111 13.19253 29298 ft 393 kts 75°
2026-04-22 19:38 47.59333 13.27085 29295 ft 393 kts 75°
2026-04-22 19:39 47.60562 13.34964 29287 ft 392 kts 75°
2026-04-22 19:39 47.61589 13.41565 29291 ft 392 kts 75°
2026-04-22 19:40 47.62801 13.49444 29286 ft 393 kts 75°
2026-04-22 19:40 47.64004 13.57336 29309 ft 392 kts 76°
2026-04-22 19:41 47.65191 13.65132 29318 ft 389 kts 76°
2026-04-22 19:41 47.66376 13.72934 29319 ft 387 kts 76°
2026-04-22 19:42 47.67546 13.80719 29312 ft 386 kts 76°
2026-04-22 19:42 47.68704 13.88496 29307 ft 385 kts 76°
2026-04-22 19:43 47.70442 14.00136 29312 ft 385 kts 76°
2026-04-22 19:43 47.71594 14.07886 29310 ft 384 kts 76°
2026-04-22 19:44 47.72738 14.15617 29244 ft 381 kts 77°
2026-04-22 19:44 47.73302 14.19451 28497 ft 380 kts 77°
2026-04-22 19:44 47.73864 14.23302 27626 ft 382 kts 76°
2026-04-22 19:45 47.74423 14.27147 27001 ft 379 kts 76°
2026-04-22 19:45 47.74977 14.30961 26380 ft 376 kts 76°
2026-04-22 19:45 47.75526 14.34743 25789 ft 372 kts 77°
2026-04-22 19:45 47.76069 14.38475 25373 ft 368 kts 76°
2026-04-22 19:46 47.76608 14.42190 25257 ft 368 kts 77°
2026-04-22 19:46 47.77144 14.45911 25281 ft 368 kts 77°
2026-04-22 19:46 47.77679 14.49629 25281 ft 367 kts 76°
2026-04-22 19:46 47.78212 14.53337 25283 ft 367 kts 77°
2026-04-22 19:47 47.78741 14.57044 25277 ft 366 kts 77°
2026-04-22 19:47 47.79269 14.60751 25282 ft 367 kts 77°
2026-04-22 19:47 47.79790 14.64405 25276 ft 354 kts 77°
2026-04-22 19:47 47.80289 14.67902 25279 ft 337 kts 76°
2026-04-22 19:48 47.80763 14.71234 25286 ft 322 kts 77°
2026-04-22 19:48 47.81100 14.74526 25284 ft 330 kts 84°
2026-04-22 19:48 47.81241 14.78054 25284 ft 353 kts 85°
2026-04-22 19:48 47.81378 14.81766 25278 ft 364 kts 85°
2026-04-22 19:49 47.81508 14.85543 25276 ft 367 kts 85°
2026-04-22 19:49 47.81631 14.89338 25275 ft 367 kts 85°
2026-04-22 19:49 47.81750 14.93138 25296 ft 368 kts 85°
2026-04-22 19:49 47.81870 14.96948 25276 ft 369 kts 85°
2026-04-22 19:50 47.81989 15.00761 25074 ft 370 kts 85°
2026-04-22 19:50 47.82108 15.04582 24464 ft 369 kts 85°
2026-04-22 19:50 47.82230 15.08386 23862 ft 368 kts 84°
2026-04-22 19:50 47.82350 15.12175 23157 ft 367 kts 85°
2026-04-22 19:51 47.82469 15.15926 22474 ft 366 kts 84°
2026-04-22 19:51 47.82589 15.19708 21798 ft 367 kts 84°
2026-04-22 19:51 47.82710 15.23520 21134 ft 368 kts 84°
2026-04-22 19:51 47.82828 15.27334 20487 ft 370 kts 84°
2026-04-22 19:52 47.82941 15.31159 19848 ft 370 kts 84°
2026-04-22 19:52 47.83053 15.34980 19231 ft 371 kts 84°
2026-04-22 19:52 47.83164 15.38811 18642 ft 371 kts 84°
2026-04-22 19:52 47.83275 15.42641 17964 ft 370 kts 84°
2026-04-22 19:53 47.83385 15.46466 17394 ft 368 kts 84°
2026-04-22 19:53 47.83488 15.50201 17241 ft 354 kts 84°
2026-04-22 19:53 47.83583 15.53778 17271 ft 341 kts 84°
2026-04-22 19:53 47.83679 15.57284 17267 ft 338 kts 83°
2026-04-22 19:54 47.83777 15.60772 17263 ft 337 kts 83°
2026-04-22 19:54 47.83874 15.64256 17267 ft 337 kts 83°
2026-04-22 19:54 47.83974 15.67742 17268 ft 337 kts 83°
2026-04-22 19:54 47.84072 15.71221 17252 ft 336 kts 83°
2026-04-22 19:55 47.84166 15.74667 16798 ft 333 kts 83°
2026-04-22 19:55 47.84257 15.78103 16294 ft 332 kts 83°
2026-04-22 19:55 47.84344 15.81522 15851 ft 329 kts 84°
2026-04-22 19:55 47.84431 15.84921 15357 ft 328 kts 84°
2026-04-22 19:56 47.84515 15.88308 14901 ft 327 kts 84°
2026-04-22 19:56 47.84597 15.91680 14434 ft 325 kts 84°
2026-04-22 19:56 47.84677 15.95025 14152 ft 319 kts 84°
2026-04-22 19:56 47.84748 15.98224 14022 ft 308 kts 84°
2026-04-22 19:57 47.84816 16.01353 13884 ft 297 kts 83°
2026-04-22 19:57 47.84885 16.04386 13695 ft 290 kts 83°
2026-04-22 19:57 47.84957 16.07373 13339 ft 288 kts 83°
2026-04-22 19:57 47.85030 16.10335 12964 ft 286 kts 83°
2026-04-22 19:58 47.85102 16.13298 12588 ft 285 kts 83°
2026-04-22 19:58 47.85172 16.16241 12191 ft 284 kts 83°
2026-04-22 19:58 47.85239 16.19170 11826 ft 283 kts 83°
2026-04-22 19:58 47.85305 16.22093 11454 ft 282 kts 83°
2026-04-22 19:59 47.85420 16.24995 11077 ft 280 kts 80°
2026-04-22 20:00 47.86821 16.42045 8701 ft 273 kts 78°
2026-04-22 20:00 47.87052 16.44842 8277 ft 271 kts 78°
2026-04-22 20:01 47.87281 16.47624 7856 ft 270 kts 78°
2026-04-22 20:01 47.87508 16.50395 7451 ft 269 kts 78°
2026-04-22 20:01 47.87731 16.53146 7043 ft 267 kts 78°
2026-04-22 20:01 47.87955 16.55894 6615 ft 267 kts 78°
2026-04-22 20:02 47.88180 16.58630 6165 ft 265 kts 78°
2026-04-22 20:02 47.88404 16.61357 5708 ft 265 kts 78°
2026-04-22 20:02 47.88623 16.64070 5273 ft 263 kts 78°
2026-04-22 20:02 47.88835 16.66727 4857 ft 260 kts 78°
2026-04-22 20:03 47.89258 16.69251 4695 ft 243 kts 66°
2026-04-22 20:03 47.89789 16.71574 4561 ft 231 kts 65°
2026-04-22 20:03 47.90303 16.73798 4312 ft 225 kts 65°
2026-04-22 20:03 47.90808 16.75990 4048 ft 221 kts 65°
2026-04-22 20:04 47.91308 16.78168 4005 ft 223 kts 65°
2026-04-22 20:04 47.91823 16.80341 4006 ft 222 kts 62°
2026-04-22 20:04 47.92753 16.82075 4008 ft 212 kts 32°
2026-04-22 20:04 47.94002 16.83227 3925 ft 210 kts 26°
2026-04-22 20:05 47.95274 16.84287 3559 ft 209 kts 26°
2026-04-22 20:05 47.96545 16.85331 3193 ft 208 kts 25°
2026-04-22 20:05 47.97900 16.85838 3009 ft 202 kts 354°
2026-04-22 20:05 47.99242 16.85191 3006 ft 205 kts 337°
2026-04-22 20:06 48.00531 16.84247 3004 ft 207 kts 332°
2026-04-22 20:06 48.01612 16.82815 3012 ft 210 kts 317°
2026-04-22 20:06 48.02595 16.81191 3012 ft 211 kts 316°
2026-04-22 20:06 48.03558 16.79534 3007 ft 211 kts 311°
2026-04-22 20:07 48.04290 16.77704 3008 ft 199 kts 302°
2026-04-22 20:07 48.04903 16.75876 3009 ft 196 kts 302°
2026-04-22 20:07 48.05505 16.74050 2974 ft 197 kts 302°
2026-04-22 20:07 48.06109 16.72213 2788 ft 196 kts 302°
2026-04-22 20:08 48.06699 16.70412 2538 ft 188 kts 302°
2026-04-22 20:08 48.07251 16.68722 2297 ft 176 kts 302°
2026-04-22 20:08 48.07773 16.67128 2057 ft 165 kts 302°
2026-04-22 20:08 48.08254 16.65656 1849 ft 148 kts 302°
2026-04-22 20:09 48.08678 16.64361 1649 ft 133 kts 302°
2026-04-22 20:09 48.09078 16.63139 1470 ft 129 kts 302°
2026-04-22 20:09 48.09472 16.61942 1282 ft 128 kts 301°
2026-04-22 20:09 48.09870 16.60773 1080 ft 127 kts 298°
2026-04-22 20:10 48.10261 16.59566 905 ft 128 kts 298°
2026-04-22 20:10 48.10640 16.58380 736 ft 125 kts 297°
2026-04-22 20:10 48.11010 16.57226 629 ft 124 kts 298°
2026-04-22 20:10 48.11349 16.56198 612 ft 88 kts 296°
2026-04-22 20:11 48.11556 16.55564 612 ft 52 kts 296°
2026-04-22 20:11 48.11684 16.55304 617 ft 16 kts 317°
2026-04-22 20:11 48.11739 16.55232 609 ft 9 kts 318°
2026-04-22 20:11 48.11788 16.55165 611 ft 10 kts 326°
2026-04-22 20:12 48.11848 16.55140 620 ft 9 kts
2026-04-22 20:12 48.11882 16.55207 614 ft 9 kts 99°
2026-04-22 20:12 48.11863 16.55271 611 ft 11 kts 115°
2026-04-22 20:12 48.11791 16.55495 610 ft 25 kts 116°
2026-04-22 20:13 48.11713 16.55735 618 ft 26 kts 115°
2026-04-22 20:13 48.11635 16.55979 614 ft 26 kts 116°
2026-04-22 20:13 48.11553 16.56226 617 ft 27 kts 116°
2026-04-22 20:13 48.11480 16.56452 614 ft 16 kts 115°
2026-04-22 20:14 48.11431 16.56600 611 ft 16 kts 116°
2026-04-22 20:14 48.11384 16.56743 620 ft 12 kts 116°
2026-04-22 20:14 48.11354 16.56834 619 ft 9 kts 116°
2026-04-22 20:14 48.11334 16.56898 613 ft 7 kts 116°
2026-04-22 20:15 48.11311 16.56971 613 ft 9 kts 116°
2026-04-22 20:15 48.11270 16.57095 620 ft 15 kts 116°
2026-04-22 20:15 48.11234 16.57241 607 ft 15 kts 79°
2026-04-22 20:15 48.11317 16.57333 614 ft 16 kts 27°
2026-04-22 20:16 48.11418 16.57405 619 ft 17 kts 25°
2026-04-22 20:16 48.11528 16.57461 609 ft 17 kts 356°
2026-04-22 20:16 48.11645 16.57412 613 ft 18 kts 343°
2026-04-22 20:16 48.11766 16.57359 614 ft 18 kts 343°
2026-04-22 20:17 48.11847 16.57226 609 ft 18 kts 291°
2026-04-22 20:17 48.11863 16.57092 613 ft 8 kts 255°
2026-04-22 20:17 48.11816 16.57046 615 ft 9 kts 206°
2026-04-22 20:17 48.11802 16.57035 609 ft 0 kts 206°